| time (UTC) | temp C | wind direction | speed KPH | gust KPH | rain 1hr cm | rain 24hr cm | rain mn cm | humidity % | barometer mb |
| 20260831020011 | 18 | 333 | 8.0 | 19.3 | 0.00 | 0.00 | 0.00 | 82 | 1020.3 |
| 20260831015512 | 18 | 20 | 6.4 | 19.3 | 0.00 | 0.00 | 0.00 | 82 | 1020.3 |
| 20260831015040 | 18 | 319 | 8.0 | 20.9 | 0.00 | 0.00 | 0.00 | 82 | 1020.3 |
| 20260831014524 | 18 | 326 | 11.3 | 22.5 | 0.00 | 0.00 | 0.00 | 82 | 1020.4 |
| 20260831014011 | 18 | 313 | 12.9 | 22.5 | 0.00 | 0.00 | 0.00 | 82 | 1020.4 |
| 20260831013515 | 18 | 317 | 9.7 | 17.7 | 0.00 | 0.00 | 0.00 | 82 | 1020.4 |
| 20260831013022 | 18 | 332 | 9.7 | 20.9 | 0.00 | 0.00 | 0.00 | 82 | 1020.5 |
| 20260831012523 | 18 | 286 | 9.7 | 20.9 | 0.00 | 0.00 | 0.00 | 82 | 1020.6 |
| 20260831012029 | 18 | 335 | 8.0 | 19.3 | 0.00 | 0.00 | 0.00 | 82 | 1020.7 |
| 20260831011536 | 18 | 326 | 8.0 | 14.5 | 0.00 | 0.00 | 0.00 | 81 | 1020.7 |
| 20260831011016 | 18 | 13 | 6.4 | 17.7 | 0.00 | 0.00 | 0.00 | 81 | 1020.6 |
| 20260831010525 | 18 | 336 | 4.8 | 17.7 | 0.00 | 0.00 | 0.00 | 81 | 1020.7 |
| 20260831010031 | 18 | 330 | 8.0 | 16.1 | 0.00 | 0.00 | 0.00 | 82 | 1020.7 |
| 20260831005511 | 18 | 286 | 4.8 | 17.7 | 0.00 | 0.00 | 0.00 | 82 | 1020.6 |
| 20260831005014 | 18 | 53 | 8.0 | 22.5 | 0.00 | 0.00 | 0.00 | 82 | 1020.6 |
| 20260831004530 | 18 | 328 | 12.9 | 22.5 | 0.00 | 0.00 | 0.00 | 82 | 1020.7 |
| 20260831004037 | 18 | 297 | 8.0 | 22.5 | 0.00 | 0.00 | 0.00 | 82 | 1020.7 |
| 20260831003517 | 18 | 341 | 9.7 | 22.5 | 0.00 | 0.00 | 0.00 | 82 | 1020.7 |
| 20260831003025 | 18 | 325 | 8.0 | 19.3 | 0.00 | 0.00 | 0.00 | 82 | 1020.7 |
| 20260831002526 | 18 | 338 | 11.3 | 22.5 | 0.00 | 0.00 | 0.00 | 82 | 1020.7 |
| 20260831002034 | 18 | 346 | 11.3 | 22.5 | 0.00 | 0.00 | 0.00 | 82 | 1020.8 |
| 20260831001520 | 18 | 331 | 8.0 | 16.1 | 0.00 | 0.00 | 0.00 | 82 | 1020.8 |
| 20260831001020 | 18 | 327 | 8.0 | 25.7 | 0.00 | 0.00 | 0.00 | 81 | 1020.8 |
| 20260831000529 | 18 | 324 | 6.4 | 22.5 | 0.00 | 0.00 | 0.00 | 81 | 1020.7 |
| 20260831000018 | 18 | 318 | 8.0 | 22.5 | 0.00 | 0.00 | 0.00 | 81 | 1020.7 |
| 20260830235526 | 18 | 307 | 9.7 | 25.7 | 0.00 | 0.00 | 0.00 | 81 | 1020.7 |
| 20260830234026 | 18 | 333 | 9.7 | 24.1 | 0.00 | 0.00 | 0.00 | 81 | 1020.8 |
| 20260830233514 | 18 | 323 | 9.7 | 27.4 | 0.00 | 0.00 | 0.00 | 81 | 1020.9 |
| 20260830233030 | 18 | 25 | 16.1 | 27.4 | 0.00 | 0.00 | 0.00 | 81 | 1020.9 |
| 20260830232531 | 18 | 83 | 12.9 | 20.9 | 0.00 | 0.00 | 0.00 | 81 | 1020.8 |
| 20260830232019 | 18 | 27 | 9.7 | 25.7 | 0.00 | 0.00 | 0.00 | 81 | 1020.9 |
| 20260830231528 | 18 | 290 | 12.9 | 27.4 | 0.00 | 0.00 | 0.00 | 81 | 1020.8 |
| 20260830231034 | 18 | 22 | 12.9 | 27.4 | 0.00 | 0.00 | 0.00 | 81 | 1020.8 |
| 20260830230517 | 18 | 32 | 9.7 | 24.1 | 0.00 | 0.00 | 0.00 | 81 | 1020.7 |
| 20260830230114 | 18 | 353 | 12.9 | 30.6 | 0.00 | 0.00 | 0.00 | 81 | 1020.8 |
| 20260830225528 | 18 | 54 | 14.5 | 30.6 | 0.00 | 0.00 | 0.00 | 81 | 1020.7 |
| 20260830225140 | 18 | 45 | 11.3 | 24.1 | 0.00 | 0.00 | 0.00 | 81 | 1020.7 |
| 20260830224556 | 19 | 104 | 8.0 | 19.3 | 0.00 | 0.00 | 0.00 | 81 | 1020.7 |
| 20260830224035 | 19 | 57 | 6.4 | 24.1 | 0.00 | 0.00 | 0.00 | 81 | 1020.8 |
| 20260830223522 | 19 | 351 | 9.7 | 24.1 | 0.00 | 0.00 | 0.00 | 81 | 1020.7 |
| 20260830223012 | 19 | 7 | 8.0 | 22.5 | 0.00 | 0.00 | 0.00 | 81 | 1020.7 |
| 20260830222533 | 19 | 57 | 9.7 | 24.1 | 0.00 | 0.00 | 0.00 | 81 | 1020.6 |
| 20260830222015 | 19 | 318 | 16.1 | 24.1 | 0.00 | 0.00 | 0.00 | 81 | 1020.6 |
| 20260830221523 | 19 | 13 | 11.3 | 19.3 | 0.00 | 0.00 | 0.00 | 81 | 1020.6 |
| 20260830221024 | 19 | 328 | 9.7 | 25.7 | 0.00 | 0.00 | 0.00 | 81 | 1020.6 |
| 20260830220529 | 19 | 10 | 8.0 | 27.4 | 0.00 | 0.00 | 0.00 | 81 | 1020.5 |
| 20260830220045 | 19 | 353 | 14.5 | 27.4 | 0.00 | 0.00 | 0.00 | 81 | 1020.5 |
| 20260830215525 | 19 | 30 | 11.3 | 22.5 | 0.00 | 0.00 | 0.00 | 81 | 1020.5 |
| 20260830214607 | 19 | 332 | 11.3 | 19.3 | 0.00 | 0.00 | 0.00 | 80 | 1020.4 |
| 20260830214024 | 19 | 328 | 11.3 | 17.7 | 0.00 | 0.00 | 0.00 | 80 | 1020.5 |
| 20260830213530 | 19 | 18 | 8.0 | 20.9 | 0.00 | 0.00 | 0.00 | 80 | 1020.5 |
| 20260830213017 | 20 | 358 | 8.0 | 20.9 | 0.00 | 0.00 | 0.00 | 80 | 1020.4 |
| 20260830212541 | 20 | 1 | 9.7 | 20.9 | 0.00 | 0.00 | 0.00 | 80 | 1020.4 |
| 20260830212027 | 20 | 31 | 9.7 | 20.9 | 0.00 | 0.00 | 0.00 | 79 | 1020.4 |
| 20260830211532 | 20 | 357 | 4.8 | 25.7 | 0.00 | 0.00 | 0.00 | 79 | 1020.2 |
| 20260830211025 | 20 | 330 | 11.3 | 25.7 | 0.00 | 0.00 | 0.00 | 79 | 1020.3 |
| 20260830210534 | 20 | 355 | 12.9 | 24.1 | 0.00 | 0.00 | 0.00 | 79 | 1020.3 |
| 20260830210035 | 20 | 354 | 8.0 | 22.5 | 0.00 | 0.00 | 0.00 | 78 | 1020.2 |
| 20260830205540 | 20 | 349 | 6.4 | 20.9 | 0.00 | 0.00 | 0.00 | 78 | 1020.2 |
| 20260830205024 | 20 | 87 | 6.4 | 20.9 | 0.00 | 0.00 | 0.00 | 78 | 1020.1 |
| 20260830204530 | 20 | 84 | 9.7 | 19.3 | 0.00 | 0.00 | 0.00 | 78 | 1020.1 |
| 20260830204011 | 20 | 306 | 6.4 | 22.5 | 0.00 | 0.00 | 0.00 | 78 | 1020.0 |
| 20260830203514 | 20 | 3 | 8.0 | 22.5 | 0.00 | 0.00 | 0.00 | 77 | 1020.0 |
| 20260830203023 | 20 | 344 | 14.5 | 24.1 | 0.00 | 0.00 | 0.00 | 77 | 1019.9 |
| 20260830202522 | 20 | 12 | 16.1 | 29.0 | 0.00 | 0.00 | 0.00 | 77 | 1019.9 |
| 20260830202035 | 20 | 309 | 17.7 | 29.0 | 0.00 | 0.00 | 0.00 | 76 | 1019.9 |
| 20260830201523 | 21 | 49 | 9.7 | 24.1 | 0.00 | 0.00 | 0.00 | 76 | 1019.8 |
| 20260830201036 | 21 | 82 | 12.9 | 25.7 | 0.00 | 0.00 | 0.00 | 75 | 1019.7 |
| 20260830200523 | 21 | 22 | 14.5 | 25.7 | 0.00 | 0.00 | 0.00 | 75 | 1019.6 |
| 20260830200037 | 21 | 347 | 14.5 | 25.7 | 0.00 | 0.00 | 0.00 | 75 | 1019.6 |
| 20260830195537 | 21 | 4 | 11.3 | 22.5 | 0.00 | 0.00 | 0.00 | 74 | 1019.6 |
| 20260830195017 | 21 | 305 | 11.3 | 22.5 | 0.00 | 0.00 | 0.00 | 74 | 1019.5 |
| 20260830194037 | 21 | 343 | 16.1 | 27.4 | 0.00 | 0.00 | 0.00 | 74 | 1019.4 |
| 20260830193516 | 21 | 330 | 12.9 | 24.1 | 0.00 | 0.00 | 0.00 | 73 | 1019.3 |
| 20260830193024 | 22 | 357 | 8.0 | 24.1 | 0.00 | 0.00 | 0.00 | 73 | 1019.3 |
| 20260830192542 | 22 | 341 | 11.3 | 20.9 | 0.00 | 0.00 | 0.00 | 73 | 1019.3 |
| 20260830192116 | 22 | 190 | 11.3 | 22.5 | 0.00 | 0.00 | 0.00 | 72 | 1019.2 |
| 20260830191538 | 22 | 190 | 12.9 | 22.5 | 0.00 | 0.00 | 0.00 | 72 | 1019.2 |
| 20260830191011 | 22 | 190 | 12.9 | 30.6 | 0.00 | 0.00 | 0.00 | 71 | 1019.2 |
| 20260830190540 | 22 | 190 | 12.9 | 30.6 | 0.00 | 0.00 | 0.00 | 71 | 1019.1 |
| 20260830190034 | 22 | 190 | 19.3 | 27.4 | 0.00 | 0.00 | 0.00 | 70 | 1019.2 |
| 20260830185535 | 23 | 190 | 19.3 | 27.4 | 0.00 | 0.00 | 0.00 | 70 | 1019.1 |
| 20260830185022 | 23 | 357 | 14.5 | 22.5 | 0.00 | 0.00 | 0.00 | 69 | 1019.1 |
| 20260830184524 | 23 | 5 | 11.3 | 20.9 | 0.00 | 0.00 | 0.00 | 69 | 1019.1 |
| 20260830184032 | 23 | 356 | 8.0 | 22.5 | 0.00 | 0.00 | 0.00 | 69 | 1019.1 |
| 20260830183513 | 23 | 336 | 11.3 | 25.7 | 0.00 | 0.00 | 0.00 | 69 | 1019.1 |
| 20260830183022 | 23 | 343 | 14.5 | 27.4 | 0.00 | 0.00 | 0.00 | 69 | 1019.1 |
| 20260830182530 | 23 | 190 | 19.3 | 29.0 | 0.00 | 0.00 | 0.00 | 69 | 1019.2 |
| 20260830182038 | 23 | 190 | 19.3 | 29.0 | 0.00 | 0.00 | 0.00 | 68 | 1019.1 |
| 20260830181516 | 23 | 190 | 17.7 | 25.7 | 0.00 | 0.00 | 0.00 | 68 | 1019.1 |
| 20260830181023 | 23 | 337 | 19.3 | 29.0 | 0.00 | 0.00 | 0.00 | 68 | 1019.2 |
| 20260830180512 | 23 | 190 | 16.1 | 29.0 | 0.00 | 0.00 | 0.00 | 68 | 1019.1 |
| 20260830180028 | 24 | 190 | 16.1 | 25.7 | 0.00 | 0.00 | 0.00 | 68 | 1019.1 |
| 20260830175529 | 24 | 190 | 19.3 | 27.4 | 0.00 | 0.00 | 0.00 | 67 | 1019.1 |
| 20260830175029 | 24 | 190 | 14.5 | 29.0 | 0.00 | 0.00 | 0.00 | 67 | 1019.1 |
| 20260830174515 | 24 | 190 | 19.3 | 32.2 | 0.00 | 0.00 | 0.00 | 67 | 1019.0 |
| 20260830174126 | 24 | 190 | 19.3 | 32.2 | 0.00 | 0.00 | 0.00 | 67 | 1019.0 |
| 20260830173548 | 24 | 349 | 22.5 | 29.0 | 0.00 | 0.00 | 0.00 | 66 | 1019.0 |
| 20260830173016 | 24 | 326 | 17.7 | 30.6 | 0.00 | 0.00 | 0.00 | 66 | 1018.9 |
| 20260830172551 | 24 | 328 | 20.9 | 32.2 | 0.00 | 0.00 | 0.00 | 66 | 1018.9 |
| 20260830172018 | 25 | 330 | 24.1 | 32.2 | 0.00 | 0.00 | 0.00 | 66 | 1019.0 |
| 20260830171526 | 25 | 190 | 24.1 | 32.2 | 0.00 | 0.00 | 0.00 | 65 | 1018.9 |
| 20260830171027 | 25 | 336 | 19.3 | 32.2 | 0.00 | 0.00 | 0.00 | 64 | 1018.9 |
| 20260830170514 | 25 | 331 | 20.9 | 32.2 | 0.00 | 0.00 | 0.00 | 64 | 1018.9 |
| 20260830170042 | 25 | 6 | 16.1 | 32.2 | 0.00 | 0.00 | 0.00 | 63 | 1018.9 |
| 20260830165522 | 25 | 316 | 22.5 | 32.2 | 0.00 | 0.00 | 0.00 | 63 | 1018.9 |
| 20260830165026 | 25 | 292 | 9.7 | 29.0 | 0.00 | 0.00 | 0.00 | 63 | 1018.8 |
| 20260830164017 | 25 | 337 | 17.7 | 29.0 | 0.00 | 0.00 | 0.00 | 63 | 1018.8 |
| 20260830163513 | 25 | 330 | 19.3 | 33.8 | 0.00 | 0.00 | 0.00 | 63 | 1018.8 |
| 20260830163021 | 25 | 323 | 20.9 | 33.8 | 0.00 | 0.00 | 0.00 | 63 | 1018.8 |
| 20260830162522 | 26 | 349 | 19.3 | 30.6 | 0.00 | 0.00 | 0.00 | 63 | 1018.8 |
| 20260830162029 | 26 | 336 | 17.7 | 29.0 | 0.00 | 0.00 | 0.00 | 63 | 1018.8 |
| 20260830161516 | 26 | 300 | 16.1 | 29.0 | 0.00 | 0.00 | 0.00 | 63 | 1018.8 |
| 20260830161023 | 26 | 311 | 16.1 | 27.4 | 0.00 | 0.00 | 0.00 | 63 | 1018.8 |
| 20260830160512 | 26 | 285 | 17.7 | 25.7 | 0.00 | 0.00 | 0.00 | 64 | 1018.8 |
| 20260830160020 | 26 | 347 | 11.3 | 30.6 | 0.00 | 0.00 | 0.00 | 64 | 1018.8 |
| 20260830155522 | 26 | 313 | 17.7 | 30.6 | 0.00 | 0.00 | 0.00 | 63 | 1018.8 |
| 20260830155027 | 26 | 319 | 17.7 | 27.4 | 0.00 | 0.00 | 0.00 | 63 | 1018.8 |
| 20260830154533 | 26 | 305 | 14.5 | 24.1 | 0.00 | 0.00 | 0.00 | 64 | 1018.8 |
| 20260830154012 | 26 | 348 | 9.7 | 22.5 | 0.00 | 0.00 | 0.00 | 64 | 1018.9 |
| 20260830153520 | 26 | 342 | 11.3 | 25.7 | 0.00 | 0.00 | 0.00 | 63 | 1018.9 |
| 20260830153029 | 26 | 309 | 17.7 | 25.7 | 0.00 | 0.00 | 0.00 | 62 | 1018.8 |
| 20260830152530 | 27 | 3 | 16.1 | 24.1 | 0.00 | 0.00 | 0.00 | 62 | 1018.9 |
| 20260830152017 | 27 | 12 | 11.3 | 24.1 | 0.00 | 0.00 | 0.00 | 62 | 1018.9 |
| 20260830151511 | 26 | 348 | 12.9 | 24.1 | 0.00 | 0.00 | 0.00 | 61 | 1018.9 |
| 20260830151018 | 27 | 355 | 16.1 | 24.1 | 0.00 | 0.00 | 0.00 | 60 | 1019.0 |
| 20260830150526 | 27 | 334 | 14.5 | 20.9 | 0.00 | 0.00 | 0.00 | 60 | 1019.0 |
| 20260830150034 | 27 | 350 | 9.7 | 19.3 | 0.00 | 0.00 | 0.00 | 59 | 1019.0 |
| 20260830145550 | 27 | 349 | 8.0 | 20.9 | 0.00 | 0.00 | 0.00 | 60 | 1019.0 |
| 20260830145017 | 27 | 330 | 8.0 | 20.9 | 0.00 | 0.00 | 0.00 | 60 | 1019.0 |
| 20260830144551 | 26 | 326 | 9.7 | 20.9 | 0.00 | 0.00 | 0.00 | 61 | 1019.0 |
| 20260830144038 | 26 | 7 | 12.9 | 22.5 | 0.00 | 0.00 | 0.00 | 60 | 1019.1 |
| 20260830143526 | 26 | 313 | 8.0 | 22.5 | 0.00 | 0.00 | 0.00 | 61 | 1019.1 |
| 20260830143013 | 26 | 359 | 12.9 | 22.5 | 0.00 | 0.00 | 0.00 | 61 | 1019.1 |
| 20260830142535 | 26 | 348 | 8.0 | 17.7 | 0.00 | 0.00 | 0.00 | 60 | 1019.1 |
| 20260830142020 | 26 | 330 | 8.0 | 24.1 | 0.00 | 0.00 | 0.00 | 61 | 1019.2 |
| 20260830141548 | 26 | 336 | 16.1 | 24.1 | 0.00 | 0.00 | 0.00 | 61 | 1019.2 |
| 20260830141050 | 26 | 317 | 14.5 | 20.9 | 0.00 | 0.00 | 0.00 | 61 | 1019.2 |
| 20260830140518 | 26 | 343 | 11.3 | 19.3 | 0.00 | 0.00 | 0.00 | 61 | 1019.2 |
| 20260830135515 | 26 | 323 | 11.3 | 19.3 | 0.00 | 0.00 | 0.00 | 63 | 1019.3 |
| 20260830135043 | 26 | 321 | 14.5 | 20.9 | 0.00 | 0.00 | 0.00 | 62 | 1019.3 |
| 20260830134550 | 26 | 321 | 12.9 | 19.3 | 0.00 | 0.00 | 0.00 | 64 | 1019.4 |
| 20260830134024 | 25 | 303 | 14.5 | 19.3 | 0.00 | 0.00 | 0.00 | 64 | 1019.5 |
| 20260830133552 | 25 | 339 | 16.1 | 20.9 | 0.00 | 0.00 | 0.00 | 64 | 1019.5 |
| 20260830133019 | 26 | 326 | 9.7 | 17.7 | 0.00 | 0.00 | 0.00 | 64 | 1019.6 |
| 20260830132547 | 25 | 291 | 9.7 | 17.7 | 0.00 | 0.00 | 0.00 | 63 | 1019.6 |
| 20260830132034 | 26 | 71 | 8.0 | 16.1 | 0.00 | 0.00 | 0.00 | 65 | 1019.7 |
| 20260830131515 | 25 | 316 | 4.8 | 22.5 | 0.00 | 0.00 | 0.00 | 65 | 1019.7 |
| 20260830131017 | 25 | 328 | 14.5 | 22.5 | 0.00 | 0.00 | 0.00 | 66 | 1019.7 |
| 20260830130556 | 25 | 305 | 4.8 | 17.7 | 0.00 | 0.00 | 0.00 | 66 | 1019.8 |
| 20260830130024 | 25 | 14 | 9.7 | 19.3 | 0.00 | 0.00 | 0.00 | 66 | 1019.8 |
| 20260830125525 | 25 | 348 | 11.3 | 20.9 | 0.00 | 0.00 | 0.00 | 67 | 1019.8 |
| 20260830125012 | 25 | 295 | 12.9 | 20.9 | 0.00 | 0.00 | 0.00 | 66 | 1019.9 |
| 20260830124029 | 24 | 38 | 6.4 | 14.5 | 0.00 | 0.00 | 0.00 | 69 | 1020.0 |
| 20260830123537 | 24 | 281 | 1.6 | 24.1 | 0.00 | 0.00 | 0.00 | 70 | 1020.1 |
| 20260830123018 | 24 | 190 | 14.5 | 24.1 | 0.00 | 0.00 | 0.00 | 70 | 1020.1 |
| 20260830122519 | 24 | 190 | 8.0 | 20.9 | 0.00 | 0.00 | 0.00 | 70 | 1020.2 |
| 20260830122043 | 24 | 190 | 11.3 | 20.9 | 0.00 | 0.00 | 0.00 | 70 | 1020.3 |
| 20260830121530 | 24 | 190 | 14.5 | 20.9 | 0.00 | 0.00 | 0.00 | 70 | 1020.2 |
| 20260830121057 | 24 | 190 | 8.0 | 19.3 | 0.00 | 0.00 | 0.00 | 71 | 1020.3 |
| 20260830120556 | 24 | 190 | 9.7 | 17.7 | 0.00 | 0.00 | 0.00 | 72 | 1020.4 |
| 20260830120013 | 23 | 190 | 6.4 | 19.3 | 0.00 | 0.00 | 0.00 | 72 | 1020.3 |
| 20260830115520 | 23 | 360 | 8.0 | 22.5 | 0.00 | 0.00 | 0.00 | 74 | 1020.4 |
| 20260830115046 | 23 | 190 | 9.7 | 22.5 | 0.00 | 0.00 | 0.00 | 74 | 1020.3 |
| 20260830114027 | 23 | 10 | 8.0 | 22.5 | 0.00 | 0.00 | 0.00 | 75 | 1020.4 |
| 20260830113527 | 23 | 318 | 8.0 | 19.3 | 0.00 | 0.00 | 0.00 | 76 | 1020.4 |
| 20260830113013 | 23 | 351 | 9.7 | 14.5 | 0.00 | 0.00 | 0.00 | 75 | 1020.5 |
| 20260830112043 | 23 | 17 | 4.8 | 17.7 | 0.00 | 0.00 | 0.00 | 76 | 1020.6 |
| 20260830111017 | 22 | 190 | 6.4 | 14.5 | 0.00 | 0.00 | 0.00 | 77 | 1020.6 |
| 20260830110527 | 22 | 190 | 6.4 | 14.5 | 0.00 | 0.00 | 0.00 | 78 | 1020.6 |
| 20260830110035 | 22 | 190 | 4.8 | 20.9 | 0.00 | 0.00 | 0.00 | 78 | 1020.7 |
| 20260830105536 | 22 | 190 | 14.5 | 20.9 | 0.00 | 0.00 | 0.00 | 78 | 1020.7 |
| 20260830105016 | 22 | 190 | 14.5 | 20.9 | 0.00 | 0.00 | 0.00 | 78 | 1020.7 |
| 20260830104035 | 22 | 13 | 11.3 | 19.3 | 0.00 | 0.00 | 0.00 | 79 | 1020.8 |
| 20260830103529 | 22 | 355 | 6.4 | 19.3 | 0.00 | 0.00 | 0.00 | 79 | 1020.7 |
| 20260830103016 | 22 | 190 | 6.4 | 19.3 | 0.00 | 0.00 | 0.00 | 79 | 1020.7 |
| 20260830102610 | 22 | 190 | 6.4 | 19.3 | 0.00 | 0.00 | 0.00 | 80 | 1020.7 |
| 20260830102034 | 22 | 292 | 8.0 | 17.7 | 0.00 | 0.00 | 0.00 | 80 | 1020.7 |
| 20260830101521 | 22 | 190 | 6.4 | 20.9 | 0.00 | 0.00 | 0.00 | 80 | 1020.6 |
| 20260830101047 | 22 | 190 | 3.2 | 16.1 | 0.00 | 0.00 | 0.00 | 81 | 1020.6 |
| 20260830100513 | 21 | 190 | 9.7 | 19.3 | 0.00 | 0.00 | 0.00 | 81 | 1020.5 |
| 20260830100013 | 21 | 190 | 11.3 | 17.7 | 0.00 | 0.00 | 0.00 | 82 | 1020.5 |
| 20260830095536 | 21 | 190 | 9.7 | 17.7 | 0.00 | 0.00 | 0.00 | 82 | 1020.6 |
| 20260830095016 | 21 | 190 | 6.4 | 17.7 | 0.00 | 0.00 | 0.00 | 82 | 1020.5 |
| 20260830094524 | 21 | 190 | 12.9 | 20.9 | 0.00 | 0.00 | 0.00 | 82 | 1020.5 |
| 20260830094031 | 21 | 190 | 9.7 | 20.9 | 0.00 | 0.00 | 0.00 | 83 | 1020.5 |
| 20260830093558 | 21 | 190 | 12.9 | 19.3 | 0.00 | 0.00 | 0.00 | 83 | 1020.4 |
| 20260830093016 | 21 | 190 | 9.7 | 17.7 | 0.00 | 0.00 | 0.00 | 83 | 1020.4 |
| 20260830092543 | 21 | 343 | 14.5 | 20.9 | 0.00 | 0.00 | 0.00 | 83 | 1020.4 |
| 20260830092022 | 21 | 307 | 12.9 | 22.5 | 0.00 | 0.00 | 0.00 | 83 | 1020.4 |
| 20260830091526 | 21 | 190 | 4.8 | 17.7 | 0.00 | 0.00 | 0.00 | 83 | 1020.4 |
| 20260830091012 | 21 | 190 | 8.0 | 17.7 | 0.00 | 0.00 | 0.00 | 83 | 1020.3 |
| 20260830090516 | 21 | 190 | 12.9 | 19.3 | 0.00 | 0.00 | 0.00 | 83 | 1020.3 |
| 20260830090024 | 21 | 190 | 11.3 | 22.5 | 0.00 | 0.00 | 0.00 | 83 | 1020.3 |
| 20260830085530 | 21 | 339 | 14.5 | 22.5 | 0.00 | 0.00 | 0.00 | 84 | 1020.3 |
| 20260830085029 | 21 | 190 | 11.3 | 20.9 | 0.00 | 0.00 | 0.00 | 84 | 1020.2 |
| 20260830084054 | 21 | 345 | 12.9 | 20.9 | 0.00 | 0.00 | 0.00 | 84 | 1020.1 |
| 20260830083531 | 21 | 345 | 8.0 | 17.7 | 0.00 | 0.00 | 0.00 | 84 | 1020.1 |
| 20260830083018 | 21 | 62 | 3.2 | 20.9 | 0.00 | 0.00 | 0.00 | 84 | 1020.0 |
| 20260830082517 | 21 | 297 | 12.9 | 20.9 | 0.00 | 0.00 | 0.00 | 84 | 1020.0 |
| 20260830082024 | 21 | 190 | 14.5 | 19.3 | 0.00 | 0.00 | 0.00 | 84 | 1020.0 |
| 20260830081524 | 21 | 340 | 8.0 | 14.5 | 0.00 | 0.00 | 0.00 | 84 | 1019.9 |
| 20260830081011 | 21 | 190 | 6.4 | 14.5 | 0.00 | 0.00 | 0.00 | 84 | 1019.8 |
| 20260830080519 | 21 | 190 | 8.0 | 16.1 | 0.00 | 0.00 | 0.00 | 84 | 1019.8 |
| 20260830080021 | 21 | 322 | 11.3 | 17.7 | 0.00 | 0.00 | 0.00 | 84 | 1019.9 |
| 20260830075521 | 21 | 323 | 11.3 | 17.7 | 0.00 | 0.00 | 0.00 | 84 | 1019.8 |
| 20260830075028 | 21 | 326 | 8.0 | 16.1 | 0.00 | 0.00 | 0.00 | 84 | 1019.9 |
| 20260830074527 | 21 | 347 | 9.7 | 16.1 | 0.00 | 0.00 | 0.00 | 84 | 1019.8 |
| 20260830074034 | 21 | 7 | 8.0 | 17.7 | 0.00 | 0.00 | 0.00 | 84 | 1019.7 |
| 20260830073520 | 21 | 8 | 9.7 | 17.7 | 0.00 | 0.00 | 0.00 | 84 | 1019.8 |
| 20260830073026 | 21 | 328 | 6.4 | 14.5 | 0.00 | 0.00 | 0.00 | 84 | 1019.7 |
| 20260830072513 | 21 | 349 | 8.0 | 12.9 | 0.00 | 0.00 | 0.00 | 84 | 1019.6 |
| 20260830072019 | 21 | 12 | 6.4 | 12.9 | 0.00 | 0.00 | 0.00 | 84 | 1019.6 |
| 20260830071525 | 21 | 334 | 8.0 | 12.9 | 0.00 | 0.00 | 0.00 | 84 | 1019.5 |
| 20260830071033 | 21 | 337 | 6.4 | 12.9 | 0.00 | 0.00 | 0.00 | 84 | 1019.5 |
| 20260830070536 | 21 | 354 | 6.4 | 11.3 | 0.00 | 0.00 | 0.00 | 84 | 1019.4 |
| 20260830070041 | 21 | 319 | 4.8 | 8.0 | 0.00 | 0.00 | 0.00 | 84 | 1019.4 |
| 20260830065518 | 21 | 323 | 3.2 | 8.0 | 0.00 | 0.00 | 0.00 | 84 | 1019.3 |
| 20260830065025 | 21 | 311 | 4.8 | 9.7 | 0.00 | 0.00 | 0.00 | 84 | 1019.3 |
| 20260830064525 | 21 | 3 | 4.8 | 9.7 | 0.00 | 0.00 | 0.00 | 84 | 1019.3 |
| 20260830064059 | 21 | 318 | 4.8 | 14.5 | 0.00 | 0.00 | 0.00 | 84 | 1019.2 |
| 20260830063518 | 21 | 355 | 8.0 | 14.5 | 0.00 | 0.00 | 0.00 | 84 | 1019.2 |
| 20260830063045 | 21 | 323 | 8.0 | 16.1 | 0.00 | 0.00 | 0.00 | 84 | 1019.2 |
| 20260830062537 | 21 | 343 | 9.7 | 20.9 | 0.00 | 0.00 | 0.00 | 83 | 1019.2 |
| 20260830062017 | 21 | 355 | 9.7 | 20.9 | 0.00 | 0.00 | 0.00 | 83 | 1019.1 |
| 20260830061524 | 21 | 312 | 8.0 | 16.1 | 0.00 | 0.00 | 0.00 | 83 | 1019.1 |
| 20260830061031 | 21 | 322 | 8.0 | 11.3 | 0.00 | 0.00 | 0.00 | 83 | 1019.0 |
| 20260830060513 | 21 | 334 | 4.8 | 12.9 | 0.00 | 0.00 | 0.00 | 83 | 1018.9 |
| 20260830060019 | 21 | 318 | 8.0 | 14.5 | 0.00 | 0.00 | 0.00 | 83 | 1018.9 |
| 20260830055545 | 21 | 347 | 6.4 | 11.3 | 0.00 | 0.00 | 0.00 | 83 | 1018.9 |
| 20260830055024 | 21 | 340 | 3.2 | 8.0 | 0.00 | 0.00 | 0.00 | 83 | 1018.9 |
| 20260830054012 | 21 | 309 | 3.2 | 9.7 | 0.00 | 0.00 | 0.00 | 83 | 1018.8 |
| 20260830053519 | 21 | 319 | 3.2 | 9.7 | 0.00 | 0.00 | 0.00 | 83 | 1018.8 |
| 20260830052523 | 21 | 328 | 1.6 | 17.7 | 0.00 | 0.00 | 0.00 | 83 | 1018.9 |
| 20260830052030 | 21 | 327 | 6.4 | 17.7 | 0.00 | 0.00 | 0.00 | 83 | 1018.9 |
| 20260830051536 | 21 | 323 | 8.0 | 16.1 | 0.00 | 0.00 | 0.00 | 83 | 1018.8 |
| 20260830051015 | 21 | 338 | 6.4 | 14.5 | 0.00 | 0.00 | 0.00 | 83 | 1018.8 |
| 20260830050523 | 21 | 99 | 6.4 | 12.9 | 0.00 | 0.00 | 0.00 | 83 | 1018.8 |
| 20260830050030 | 21 | 343 | 4.8 | 12.9 | 0.00 | 0.00 | 0.00 | 83 | 1018.8 |
| 20260830045530 | 21 | 320 | 8.0 | 12.9 | 0.00 | 0.00 | 0.00 | 83 | 1018.9 |
| 20260830045018 | 21 | 16 | 4.8 | 11.3 | 0.00 | 0.00 | 0.00 | 83 | 1018.9 |
| 20260830044525 | 21 | 347 | 1.6 | 14.5 | 0.00 | 0.00 | 0.00 | 83 | 1018.9 |
| 20260830044031 | 21 | 323 | 4.8 | 14.5 | 0.00 | 0.00 | 0.00 | 83 | 1018.9 |
| 20260830043517 | 21 | 353 | 3.2 | 17.7 | 0.00 | 0.00 | 0.00 | 83 | 1018.8 |
| 20260830043032 | 21 | 351 | 6.4 | 17.7 | 0.00 | 0.00 | 0.00 | 83 | 1018.8 |
| 20260830042529 | 21 | 165 | 3.2 | 14.5 | 0.00 | 0.00 | 0.00 | 83 | 1018.8 |
| 20260830042035 | 21 | 305 | 6.4 | 19.3 | 0.00 | 0.00 | 0.00 | 83 | 1018.8 |
| 20260830041514 | 21 | 5 | 12.9 | 22.5 | 0.00 | 0.00 | 0.00 | 83 | 1018.8 |
| 20260830041021 | 21 | 291 | 9.7 | 22.5 | 0.00 | 0.00 | 0.00 | 83 | 1018.8 |
| 20260830040529 | 21 | 47 | 4.8 | 12.9 | 0.00 | 0.00 | 0.00 | 83 | 1018.8 |
| 20260830040035 | 21 | 347 | 4.8 | 12.9 | 0.00 | 0.00 | 0.00 | 83 | 1018.8 |
| 20260830035533 | 21 | 310 | 8.0 | 14.5 | 0.00 | 0.00 | 0.00 | 83 | 1018.9 |
| 20260830035019 | 21 | 336 | 8.0 | 16.1 | 0.00 | 0.00 | 0.00 | 83 | 1018.9 |
| 20260830034026 | 21 | 296 | 9.7 | 16.1 | 0.00 | 0.00 | 0.00 | 83 | 1018.9 |
| 20260830033514 | 21 | 298 | 6.4 | 14.5 | 0.00 | 0.00 | 0.00 | 83 | 1018.9 |
| 20260830032557 | 21 | 330 | 8.0 | 19.3 | 0.00 | 0.00 | 0.00 | 83 | 1019.0 |
| 20260830032024 | 21 | 314 | 4.8 | 14.5 | 0.00 | 0.00 | 0.00 | 83 | 1019.0 |
| 20260830031513 | 21 | 318 | 4.8 | 17.7 | 0.00 | 0.00 | 0.00 | 83 | 1019.0 |
| 20260830031015 | 21 | 331 | 4.8 | 20.9 | 0.00 | 0.00 | 0.00 | 83 | 1019.0 |
| 20260830030012 | 21 | 336 | 4.8 | 16.1 | 0.00 | 0.00 | 0.00 | 83 | 1019.0 |
| 20260830025520 | 21 | 321 | 4.8 | 25.7 | 0.00 | 0.00 | 0.00 | 83 | 1019.0 |
| 20260830025023 | 20 | 330 | 11.3 | 25.7 | 0.00 | 0.00 | 0.00 | 83 | 1019.1 |
| 20260830024531 | 20 | 332 | 9.7 | 16.1 | 0.00 | 0.00 | 0.00 | 83 | 1019.1 |
| 20260830024018 | 20 | 321 | 6.4 | 14.5 | 0.00 | 0.00 | 0.00 | 83 | 1019.1 |
| 20260830023547 | 20 | 328 | 8.0 | 19.3 | 0.00 | 0.00 | 0.00 | 83 | 1019.1 |
| 20260830023032 | 20 | 335 | 8.0 | 14.5 | 0.00 | 0.00 | 0.00 | 83 | 1019.1 |
| 20260830022512 | 20 | 325 | 9.7 | 16.1 | 0.00 | 0.00 | 0.00 | 83 | 1019.1 |
| 20260830022026 | 20 | 326 | 9.7 | 24.1 | 0.00 | 0.00 | 0.00 | 83 | 1019.1 |
| 20260830021011 | 20 | 335 | 12.9 | 22.5 | 0.00 | 0.00 | 0.00 | 83 | 1019.1 |
| 20260830020520 | 20 | 288 | 12.9 | 22.5 | 0.00 | 0.00 | 0.00 | 83 | 1019.1 |